Regional Weather Roundup
Issued by NWS

Home | Current Version | Previous Version | Graphics & Text | Print | Product List | Glossary On
Versions: 1 2 3 4 5 6 7 8 9 10 11 12 13 14 15 16 17 18 19 20 21 22 23 24 25 26 27 28 29 30 31 32 33 34 35 36 37 38 39 40 41 42 43 44 45 46 47 48 49 50
000
ASUS43 KLMK 281802
RWRKY
KENTUCKY REGIONAL WEATHER ROUNDUP
NATIONAL WEATHER SERVICE LOUISVILLE KY
200 PM EDT WED SEP 28 2016

NOTE "FAIR" INDICATES FEW OR NO CLOUDS BELOW 12,000 FEET
WITH NO SIGNIFICANT WEATHER AND/OR OBSTRUCTIONS TO VISIBILITY.

KYZ001>023-026-027-061>063-070>075-281900-
WESTERN AND SOUTH CENTRAL KENTUCKY

CITY           SKY/WX    TMP DP  RH WIND       PRES   REMARKS
PADUCAH        PTSUNNY   74  54  49 NW7       29.87R
HENDERSON      MOSUNNY   64  57  77 W9        29.87R
OWENSBORO      LGT RAIN N/A N/A N/A NW12      29.86R
HOPKINSVILLE   MOSUNNY   78  55  44 W17       29.83F
BOWLING GREEN  CLOUDY    82  52  35 SW21G30   29.81F
GLASGOW        SUNNY     78  49  36 S18G28    29.83F
$$

KYZ024-025-028>034-038-045-046-053-281900-
NORTH CENTRAL KENTUCKY

CITY           SKY/WX    TMP DP  RH WIND       PRES   REMARKS
LOUISVILLE/SDF RAIN      60  56  86 W6        29.87R FOG
LOUISVILLE/LOU HVY RAIN  60  57  89 W5        29.87R FOG
FORT KNOX      LGT RAIN  62  57  82 N9        29.84R
$$

KYZ035>037-039>044-047>052-055>060-089>105-281900-
NORTHEAST KENTUCKY

CITY           SKY/WX    TMP DP  RH WIND       PRES   REMARKS
LEXINGTON      CLOUDY    72  48  42 W9        29.85R
COVINGTON      LGT RAIN  59  56  89 S7        29.85R
FRANKFORT      CLOUDY    67  52  58 NW7       29.84S
$$

KYZ054-064>069-076>088-106>120-281900-
SOUTHEAST KENTUCKY

CITY           SKY/WX    TMP DP  RH WIND       PRES   REMARKS
JACKSON        SUNNY     77  48  35 VRB7      29.88F
LONDON         SUNNY     77  45  32 S10G22    29.89F
SOMERSET       CLOUDY    77  45  31 SW17G24   29.89F
MIDDLESBORO    SUNNY     75  46  35 S6        29.93F
MONTICELLO     CLEAR     79  50  36 SW14G25   29.90F
$$





USA.gov is the U.S. government's official web portal to all federal, state and local government web resources and services.